Palm Springs, CA

10:29 PM PDT on September 24, 2016 (GMT -0700)
Palm Springs International

Weather History for KPSP - November, 2012

Change the Weather History Date:

Monday, November 12, 2012

  Actual Average Record
Temperature  
Mean Temperature 59 °F 66 °F  
Max Temperature 72 °F 79 °F 95 °F (1933)
Min Temperature 45 °F 53 °F 34 °F (1950)
Degree Days  
Heating Degree Days 6 2  
Month to date heating degree days 26 15  
Since 1 July heating degree days 26 19  
Cooling Degree Days 0 3  
Month to date cooling degree days 84 53  
Year to date cooling degree days 4673 4115  
Growing Degree Days 8 (Base 50)    
Moisture  
Dew Point 9 °F    
Average Humidity 16    
Maximum Humidity 25    
Minimum Humidity 7    
Precipitation  
Precipitation 0.00 in 0.01 in 1.62 in (1941)
Month to date precipitation T 0.15  
Year to date precipitation 1.82 4.48  
Since 1 July precipitation 1.03  
Snow  
Snow 0.00 in - - ()
Month to date snowfall 0.0  
Year to date snowfall 0.0  
Snow Depth 0.00 in    
Sea Level Pressure  
Sea Level Pressure 30.25 in    
Wind  
Wind Speed 3 mph (WNW)    
Max Wind Speed 8 mph    
Max Gust Speed 10 mph    
Visibility 10 miles    
Events      
T = Trace of Precipitation, MM = Missing Value Source: NWS Daily Summary

Daily Weather History Graph

Daily Weather History Graph

Search for Another Location

Airport or City:

Trip Planner

Search our weather history database for the weather conditions in past years. The results will help you decide how hot, cold, wet, or windy it might be!

Date:

Astronomy

Nov. 12, 2012 Rise Set
Actual Time 6:15 AM PST 4:44 PM PST
Civil Twilight 5:49 AM PST 5:10 PM PST
Nautical Twilight 5:19 AM PST 5:40 PM PST
Astronomical Twilight 4:49 AM PST 6:10 PM PST
Moon 4:48 AM PST (11/12) 3:51 PM PST (11/12)
Length of Visible Light 11h 21m
Length of Day
10h 28m
Waning Crescent, 2% of the Moon is Illuminated
Nov 12
Waning Crescent
Nov 13
New
Nov 20
First Quarter
Nov 28
Full
Dec 6
Last Quarter

Hourly Weather History & Observations

Time (PST) Temp. Dew Point Humidity Pressure Visibility Wind Dir Wind Speed Gust Speed Precip Events Conditions
12:53 AM 53.1 °F 14.0 °F 21% 30.33 in 10.0 mi West 4.6 mph - N/A   Clear
1:53 AM 51.1 °F 14.0 °F 23% 30.34 in 10.0 mi West 4.6 mph - N/A   Clear
2:53 AM 51.1 °F 14.0 °F 23% 30.32 in 10.0 mi WSW 5.8 mph - N/A   Clear
3:53 AM 50.0 °F 12.9 °F 23% 30.31 in 10.0 mi West 5.8 mph - N/A   Clear
4:53 AM 48.0 °F 14.0 °F 26% 30.31 in 10.0 mi NW 4.6 mph - N/A   Clear
5:53 AM 48.9 °F 12.9 °F 24% 30.32 in 10.0 mi West 5.8 mph - N/A   Clear
6:53 AM 46.9 °F 12.9 °F 25% 30.34 in 10.0 mi NW 5.8 mph - N/A   Clear
7:53 AM 54.0 °F 15.1 °F 22% 30.34 in 10.0 mi West 3.5 mph - N/A   Clear
8:53 AM 60.1 °F 15.1 °F 17% 30.33 in 10.0 mi Calm Calm - N/A   Clear
9:53 AM 63.0 °F 10.9 °F 13% 30.31 in 10.0 mi Calm Calm - N/A   Clear
10:53 AM 64.9 °F 8.1 °F 11% 30.27 in 10.0 mi Calm Calm - N/A   Clear
11:53 AM 66.9 °F 5.0 °F 9% 30.24 in 10.0 mi Calm Calm - N/A   Clear
12:53 PM 69.1 °F 3.0 °F 7% 30.20 in 10.0 mi Variable 4.6 mph - N/A   Clear
1:53 PM 71.1 °F 3.0 °F 7% 30.19 in 10.0 mi Calm Calm - N/A   Clear
2:53 PM 71.1 °F 3.9 °F 7% 30.17 in 10.0 mi SW 3.5 mph - N/A   Clear
3:53 PM 70.0 °F -0.0 °F 6% 30.16 in 10.0 mi WSW 3.5 mph - N/A   Clear
4:53 PM 66.0 °F 10.9 °F 12% 30.16 in 10.0 mi Calm Calm - N/A   Clear
5:53 PM 64.0 °F 12.9 °F 14% 30.17 in 10.0 mi NW 4.6 mph - N/A   Clear
6:53 PM 61.0 °F 12.0 °F 15% 30.19 in 10.0 mi NW 4.6 mph - N/A   Clear
7:53 PM 57.9 °F 6.1 °F 13% 30.19 in 10.0 mi NNW 5.8 mph - N/A   Clear
8:53 PM 57.9 °F 7.0 °F 13% 30.20 in 10.0 mi NW 3.5 mph - N/A   Clear
9:53 PM 55.0 °F 7.0 °F 15% 30.20 in 10.0 mi NW 5.8 mph - N/A   Clear
10:53 PM 52.0 °F 6.1 °F 16% 30.19 in 10.0 mi NNW 6.9 mph - N/A   Clear
11:53 PM 53.1 °F 3.0 °F 13% 30.18 in 10.0 mi NNW 4.6 mph - N/A   Clear